sat.trackr.live / text

‹ back to catalog

STARLINK-37324

NORAD 68749 · 2026-082X

PAYLOAD ACTIVE UNKNOWN

§ Identity

Operator
Country
US
Launch date
2026-04-15
Launch site
AFWTR
Launch vehicle
Mass (kg)
RCS (m²)

Purposes: comms

External: N2YO · Heavens-Above · Gunter

§ Orbital elements

Epoch: 2026-05-25T04:00:03.998880Z

Period
92.45 min
Inclination
97.2854°
Eccentricity
0.0001708
Mean motion
15.57603363 rev/d
Perigee alt
393.4 km
Apogee alt
395.8 km
Semi-major
6,772.7 km
B*
-1.1177e-2
RAAN
8.9324°
Arg perigee
101.7755°
Mean anomaly
345.3674°
Rev number
600

§ Raw data

STARLINK-373241 68749U 26082X   26145.16671295 -.00751047  00000+0 -11177-1 0  99902 68749  97.2854   8.9324 0001708 101.7755 345.3674 15.57603363  6006

JSON: /api/v1/satellites/68749 · /tle

For live sub-satellite position, see the globe view (requires WebGL).

§ Visibility from observer

Set your observer location to see the next 7 days of passes ≥ 10°. The values pass through the URL so the page stays shareable.

No JS? Fill the form by hand. The geolocation button needs JavaScript.